Simultaneous Nadir Overpasses (SNOs) Predictions

Prediction of SNOs between AURA and NPP Satellite Orbit:

Table of predicted SNOs for the next 14.0 days since TLE Epoch: 3/17/2019
Index Date (AURA) Time (AURA) Lat,Lon (AURA) SZA (AURA ) Date (NPP) Time (NPP) Lat,Lon (NPP) SZA (NPP ) Distance(km) Time Diff (sec)
1 03/17/2019 04:31:10 79.82, 11.40 93.73 03/17/2019 04:31:57 79.82, 11.51 93.68 2.08 47
2 03/19/2019 19:58:20 -79.58, -42.16 86.97 03/19/2019 19:58:13 -79.57, -42.30 86.94 3.02 7
3 03/19/2019 20:47:39 79.83, 127.37 92.64 03/19/2019 20:48:49 79.84, 127.41 92.58 0.94 70
4 03/22/2019 11:25:26 79.47, -94.69 92.14 03/22/2019 11:24:24 79.47, -94.64 92.17 1.25 62
5 03/22/2019 12:14:46 -79.74, 74.87 88.28 03/22/2019 12:15:01 -79.74, 75.01 88.32 2.79 15
6 03/25/2019 03:41:54 79.55, 21.75 90.94 03/25/2019 03:41:15 79.55, 21.79 90.96 0.78 39
7 03/25/2019 04:31:15 -79.78,-168.92 89.42 03/25/2019 04:31:53 -79.79,-168.80 89.48 2.61 38
8 03/27/2019 19:58:22 79.63, 138.19 89.75 03/27/2019 19:58:06 79.63, 138.22 89.76 0.74 16
9 03/27/2019 20:47:43 -79.85, -52.46 90.61 03/27/2019 20:48:44 -79.86, -52.32 90.68 2.83 61
10 03/30/2019 11:25:31 -79.41, 84.90 90.98 03/30/2019 11:24:21 -79.40, 84.82 90.91 1.78 70




NCC Satellite Simultaneous Nadir Overpasses (SNOs) Prediction Service
